| time (UTC) | temp F | wind direction | speed knots | gust knots | rain 1hr in | rain 24hr in | rain mn in | humidity % | barometer mb |
| 20260505041653 | 52 | 193 | 3.5 | 8.7 | 0.00 | 0.00 | 0.00 | 81 | 1011.3 |
| 20260505041143 | 52 | 175 | 3.5 | 8.7 | 0.00 | 0.00 | 0.00 | 81 | 1011.3 |
| 20260505040631 | 52 | 244 | 3.5 | 8.7 | 0.00 | 0.00 | 0.00 | 81 | 1011.3 |
| 20260505040136 | 52 | 197 | 3.5 | 7.8 | 0.00 | 0.00 | 0.00 | 80 | 1011.3 |
| 20260505035644 | 52 | 220 | 4.3 | 7.8 | 0.00 | 0.00 | 0.00 | 80 | 1011.3 |
| 20260505035130 | 52 | 218 | 4.3 | 8.7 | 0.00 | 0.00 | 0.00 | 80 | 1011.4 |
| 20260505034624 | 52 | 196 | 3.5 | 8.7 | 0.00 | 0.00 | 0.00 | 79 | 1011.3 |
| 20260505034125 | 52 | 186 | 4.3 | 7.8 | 0.00 | 0.00 | 0.00 | 79 | 1011.2 |
| 20260505033632 | 52 | 197 | 3.5 | 7.0 | 0.00 | 0.00 | 0.00 | 78 | 1011.2 |
| 20260505033122 | 53 | 159 | 2.6 | 7.0 | 0.00 | 0.00 | 0.00 | 77 | 1011.1 |
| 20260505032627 | 53 | 219 | 2.6 | 8.7 | 0.00 | 0.00 | 0.00 | 77 | 1011.1 |
| 20260505032138 | 53 | 202 | 5.2 | 8.7 | 0.00 | 0.00 | 0.00 | 77 | 1011.1 |
| 20260505031621 | 53 | 196 | 5.2 | 10.4 | 0.00 | 0.00 | 0.00 | 75 | 1011.1 |
| 20260505031144 | 54 | 187 | 5.2 | 10.4 | 0.00 | 0.00 | 0.00 | 75 | 1011.2 |
| 20260505030630 | 54 | 200 | 3.5 | 13.9 | 0.00 | 0.00 | 0.00 | 75 | 1011.2 |
| 20260505030156 | 54 | 221 | 7.0 | 13.9 | 0.00 | 0.00 | 0.00 | 75 | 1011.2 |
| 20260505025644 | 54 | 199 | 4.3 | 9.6 | 0.00 | 0.00 | 0.00 | 74 | 1011.2 |
| 20260505025124 | 54 | 178 | 6.1 | 9.6 | 0.00 | 0.00 | 0.00 | 74 | 1011.2 |
| 20260505024636 | 54 | 209 | 4.3 | 7.8 | 0.00 | 0.00 | 0.00 | 74 | 1011.3 |
| 20260505024127 | 54 | 213 | 4.3 | 7.8 | 0.00 | 0.00 | 0.00 | 74 | 1011.3 |
| 20260505023633 | 54 | 206 | 3.5 | 9.6 | 0.00 | 0.00 | 0.00 | 73 | 1011.3 |
| 20260505023121 | 54 | 186 | 3.5 | 7.8 | 0.00 | 0.00 | 0.00 | 72 | 1011.3 |
| 20260505022628 | 55 | 236 | 2.6 | 7.8 | 0.00 | 0.00 | 0.00 | 71 | 1011.3 |
| 20260505022150 | 55 | 232 | 4.3 | 7.8 | 0.00 | 0.00 | 0.00 | 71 | 1011.3 |
| 20260505021623 | 55 | 246 | 3.5 | 8.7 | 0.00 | 0.00 | 0.00 | 70 | 1011.2 |
| 20260505021149 | 55 | 202 | 5.2 | 10.4 | 0.00 | 0.00 | 0.00 | 70 | 1011.2 |
| 20260505020638 | 55 | 200 | 5.2 | 10.4 | 0.00 | 0.00 | 0.00 | 70 | 1011.3 |
| 20260505020127 | 55 | 196 | 5.2 | 16.5 | 0.00 | 0.00 | 0.00 | 69 | 1011.3 |
| 20260505015651 | 55 | 217 | 5.2 | 15.6 | 0.00 | 0.00 | 0.00 | 69 | 1011.3 |
| 20260505015134 | 55 | 258 | 5.2 | 10.4 | 0.00 | 0.00 | 0.00 | 68 | 1011.3 |
| 20260505014641 | 56 | 220 | 5.2 | 10.4 | 0.00 | 0.00 | 0.00 | 68 | 1011.3 |
| 20260505014130 | 56 | 228 | 4.3 | 11.3 | 0.00 | 0.00 | 0.00 | 67 | 1011.3 |
| 20260505013636 | 56 | 242 | 3.5 | 11.3 | 0.00 | 0.00 | 0.00 | 67 | 1011.2 |
| 20260505013126 | 56 | 215 | 5.2 | 12.2 | 0.00 | 0.00 | 0.00 | 66 | 1011.2 |
| 20260505012629 | 56 | 194 | 7.0 | 12.2 | 0.00 | 0.00 | 0.00 | 65 | 1011.1 |
| 20260505012158 | 56 | 227 | 4.3 | 8.7 | 0.00 | 0.00 | 0.00 | 65 | 1011.0 |
| 20260505011646 | 57 | 232 | 2.6 | 13.0 | 0.00 | 0.00 | 0.00 | 64 | 1011.0 |
| 20260505011132 | 57 | 215 | 5.2 | 13.0 | 0.00 | 0.00 | 0.00 | 63 | 1010.9 |
| 20260505010643 | 57 | 218 | 4.3 | 8.7 | 0.00 | 0.00 | 0.00 | 62 | 1010.8 |
| 20260505010146 | 57 | 200 | 4.3 | 10.4 | 0.00 | 0.00 | 0.00 | 61 | 1010.7 |
| 20260505005659 | 57 | 245 | 7.0 | 11.3 | 0.00 | 0.00 | 0.00 | 61 | 1010.6 |
| 20260505005145 | 58 | 234 | 5.2 | 13.9 | 0.00 | 0.00 | 0.00 | 61 | 1010.5 |
| 20260505004651 | 58 | 232 | 4.3 | 13.9 | 0.00 | 0.00 | 0.00 | 60 | 1010.4 |
| 20260505004152 | 58 | 201 | 6.1 | 13.9 | 0.00 | 0.00 | 0.00 | 60 | 1010.2 |
| 20260505003642 | 59 | 252 | 7.0 | 13.0 | 0.00 | 0.00 | 0.00 | 59 | 1010.2 |
| 20260505003130 | 59 | 215 | 6.1 | 17.4 | 0.00 | 0.00 | 0.00 | 57 | 1010.1 |
| 20260505002640 | 59 | 213 | 9.6 | 18.2 | 0.00 | 0.00 | 0.00 | 57 | 1010.0 |
| 20260505002142 | 59 | 162 | 6.1 | 18.2 | 0.00 | 0.00 | 0.00 | 56 | 1009.8 |
| 20260505001629 | 60 | 192 | 7.8 | 15.6 | 0.00 | 0.00 | 0.00 | 55 | 1009.7 |
| 20260505001207 | 60 | 204 | 6.1 | 21.7 | 0.00 | 0.00 | 0.00 | 55 | 1009.5 |
| 20260505000640 | 60 | 216 | 8.7 | 13.9 | 0.00 | 0.00 | 0.00 | 55 | 1009.5 |
| 20260505000128 | 60 | 257 | 7.0 | 13.9 | 0.00 | 0.00 | 0.00 | 54 | 1009.5 |
| 20260504235654 | 61 | 217 | 7.8 | 13.9 | 0.00 | 0.00 | 0.00 | 53 | 1009.4 |
| 20260504235128 | 61 | 208 | 6.1 | 16.5 | 0.00 | 0.00 | 0.00 | 53 | 1009.2 |
| 20260504234634 | 61 | 215 | 4.3 | 16.5 | 0.00 | 0.00 | 0.00 | 52 | 1009.1 |
| 20260504234137 | 62 | 234 | 6.1 | 19.1 | 0.00 | 0.00 | 0.00 | 52 | 1009.1 |
| 20260504233627 | 62 | 232 | 6.1 | 19.1 | 0.00 | 0.00 | 0.00 | 51 | 1009.0 |
| 20260504233136 | 62 | 227 | 8.7 | 16.5 | 0.00 | 0.00 | 0.00 | 51 | 1008.9 |
| 20260504232625 | 62 | 211 | 7.8 | 17.4 | 0.00 | 0.00 | 0.00 | 51 | 1008.8 |
| 20260504232131 | 62 | 222 | 7.0 | 17.4 | 0.00 | 0.00 | 0.00 | 51 | 1008.8 |
| 20260504231637 | 63 | 279 | 8.7 | 17.4 | 0.00 | 0.00 | 0.00 | 50 | 1008.7 |
| 20260504231124 | 63 | 204 | 8.7 | 20.0 | 0.00 | 0.00 | 0.00 | 50 | 1008.7 |
| 20260504230628 | 63 | 217 | 8.7 | 20.0 | 0.00 | 0.00 | 0.00 | 51 | 1008.6 |
| 20260504230121 | 63 | 156 | 8.7 | 17.4 | 0.00 | 0.00 | 0.00 | 50 | 1008.5 |
| 20260504225630 | 63 | 227 | 8.7 | 13.0 | 0.00 | 0.00 | 0.00 | 50 | 1008.5 |
| 20260504225133 | 64 | 237 | 6.1 | 20.9 | 0.00 | 0.00 | 0.00 | 51 | 1008.4 |
| 20260504224640 | 64 | 234 | 8.7 | 20.9 | 0.00 | 0.00 | 0.00 | 50 | 1008.4 |
| 20260504224129 | 64 | 205 | 5.2 | 18.2 | 0.00 | 0.00 | 0.00 | 49 | 1008.2 |
| 20260504223653 | 65 | 221 | 7.8 | 20.0 | 0.00 | 0.00 | 0.00 | 49 | 1008.2 |
| 20260504223123 | 65 | 217 | 13.0 | 20.0 | 0.00 | 0.00 | 0.00 | 48 | 1008.1 |
| 20260504222630 | 65 | 195 | 9.6 | 21.7 | 0.00 | 0.00 | 0.00 | 48 | 1008.1 |
| 20260504222149 | 66 | 209 | 13.9 | 19.1 | 0.00 | 0.00 | 0.00 | 48 | 1008.1 |
| 20260504221636 | 66 | 236 | 8.7 | 20.9 | 0.00 | 0.00 | 0.00 | 48 | 1008.1 |
| 20260504221125 | 66 | 263 | 7.0 | 20.9 | 0.00 | 0.00 | 0.00 | 47 | 1008.0 |
| 20260504220649 | 66 | 202 | 7.0 | 18.2 | 0.00 | 0.00 | 0.00 | 47 | 1008.1 |
| 20260504220134 | 66 | 212 | 9.6 | 19.1 | 0.00 | 0.00 | 0.00 | 46 | 1008.1 |
| 20260504215653 | 66 | 242 | 13.0 | 21.7 | 0.00 | 0.00 | 0.00 | 46 | 1008.1 |
| 20260504215142 | 66 | 234 | 13.0 | 21.7 | 0.00 | 0.00 | 0.00 | 46 | 1008.0 |
| 20260504214628 | 67 | 202 | 11.3 | 22.6 | 0.00 | 0.00 | 0.00 | 45 | 1008.2 |
| 20260504214135 | 67 | 255 | 8.7 | 17.4 | 0.00 | 0.00 | 0.00 | 44 | 1008.1 |
| 20260504213625 | 67 | 188 | 7.8 | 17.4 | 0.00 | 0.00 | 0.00 | 44 | 1008.0 |
| 20260504213148 | 67 | 232 | 7.8 | 20.9 | 0.00 | 0.00 | 0.00 | 43 | 1008.0 |
| 20260504212622 | 68 | 242 | 13.0 | 23.5 | 0.00 | 0.00 | 0.00 | 43 | 1007.9 |
| 20260504212132 | 68 | 201 | 8.7 | 19.1 | 0.00 | 0.00 | 0.00 | 43 | 1007.8 |
| 20260504211655 | 68 | 202 | 7.8 | 19.1 | 0.00 | 0.00 | 0.00 | 42 | 1007.8 |
| 20260504211129 | 69 | 196 | 8.7 | 20.0 | 0.00 | 0.00 | 0.00 | 43 | 1007.8 |
| 20260504210637 | 69 | 211 | 12.2 | 20.0 | 0.00 | 0.00 | 0.00 | 42 | 1007.8 |
| 20260504210122 | 69 | 223 | 13.0 | 20.9 | 0.00 | 0.00 | 0.00 | 41 | 1007.7 |
| 20260504205626 | 70 | 245 | 6.1 | 20.0 | 0.00 | 0.00 | 0.00 | 41 | 1007.7 |
| 20260504205151 | 70 | 187 | 9.6 | 17.4 | 0.00 | 0.00 | 0.00 | 38 | 1007.6 |
| 20260504204637 | 70 | 221 | 4.3 | 11.3 | 0.00 | 0.00 | 0.00 | 39 | 1007.6 |
| 20260504204126 | 70 | 226 | 7.0 | 20.0 | 0.00 | 0.00 | 0.00 | 38 | 1007.6 |
| 20260504203705 | 71 | 236 | 7.8 | 20.0 | 0.00 | 0.00 | 0.00 | 36 | 1007.6 |
| 20260504203134 | 71 | 193 | 7.0 | 20.0 | 0.00 | 0.00 | 0.00 | 37 | 1007.6 |
| 20260504202626 | 71 | 244 | 10.4 | 20.0 | 0.00 | 0.00 | 0.00 | 36 | 1007.7 |
| 20260504202149 | 72 | 242 | 9.6 | 23.5 | 0.00 | 0.00 | 0.00 | 37 | 1007.6 |
| 20260504201637 | 72 | 247 | 6.1 | 17.4 | 0.00 | 0.00 | 0.00 | 37 | 1007.6 |
| 20260504201124 | 71 | 256 | 7.0 | 21.7 | 0.00 | 0.00 | 0.00 | 36 | 1007.7 |
| 20260504200627 | 71 | 240 | 10.4 | 22.6 | 0.00 | 0.00 | 0.00 | 36 | 1007.8 |
| 20260504200133 | 71 | 227 | 12.2 | 22.6 | 0.00 | 0.00 | 0.00 | 38 | 1007.7 |
| 20260504195626 | 72 | 236 | 9.6 | 23.5 | 0.00 | 0.00 | 0.00 | 37 | 1007.8 |
| 20260504195148 | 72 | 216 | 12.2 | 23.5 | 0.00 | 0.00 | 0.00 | 35 | 1007.7 |
| 20260504194631 | 72 | 248 | 5.2 | 18.2 | 0.00 | 0.00 | 0.00 | 36 | 1007.8 |
| 20260504194137 | 72 | 306 | 11.3 | 18.2 | 0.00 | 0.00 | 0.00 | 33 | 1007.8 |
| 20260504193644 | 72 | 288 | 7.8 | 17.4 | 0.00 | 0.00 | 0.00 | 37 | 1007.9 |
| 20260504193146 | 72 | 211 | 7.8 | 16.5 | 0.00 | 0.00 | 0.00 | 37 | 1007.8 |
| 20260504192626 | 72 | 247 | 8.7 | 16.5 | 0.00 | 0.00 | 0.00 | 35 | 1007.8 |
| 20260504192121 | 72 | 245 | 7.0 | 18.2 | 0.00 | 0.00 | 0.00 | 36 | 1007.8 |
| 20260504191626 | 72 | 244 | 7.0 | 18.2 | 0.00 | 0.00 | 0.00 | 34 | 1007.8 |
| 20260504191151 | 71 | 248 | 8.7 | 18.2 | 0.00 | 0.00 | 0.00 | 35 | 1007.8 |
| 20260504190644 | 71 | 237 | 11.3 | 18.2 | 0.00 | 0.00 | 0.00 | 34 | 1007.9 |
| 20260504190146 | 71 | 215 | 11.3 | 22.6 | 0.00 | 0.00 | 0.00 | 35 | 1007.8 |
| 20260504185637 | 71 | 263 | 11.3 | 22.6 | 0.00 | 0.00 | 0.00 | 34 | 1008.0 |
| 20260504185139 | 71 | 182 | 11.3 | 21.7 | 0.00 | 0.00 | 0.00 | 35 | 1008.1 |
| 20260504184644 | 71 | 226 | 12.2 | 20.9 | 0.00 | 0.00 | 0.00 | 34 | 1008.1 |
| 20260504184137 | 71 | 236 | 7.8 | 26.9 | 0.00 | 0.00 | 0.00 | 34 | 1008.1 |
| 20260504183625 | 71 | 217 | 12.2 | 26.9 | 0.00 | 0.00 | 0.00 | 35 | 1008.0 |
| 20260504183133 | 71 | 211 | 8.7 | 20.9 | 0.00 | 0.00 | 0.00 | 36 | 1008.1 |
| 20260504182632 | 71 | 265 | 8.7 | 25.2 | 0.00 | 0.00 | 0.00 | 37 | 1008.1 |
| 20260504182214 | 71 | 203 | 9.6 | 25.2 | 0.00 | 0.00 | 0.00 | 34 | 1008.2 |
| 20260504181701 | 71 | 229 | 10.4 | 20.9 | 0.00 | 0.00 | 0.00 | 35 | 1008.3 |
| 20260504181128 | 71 | 202 | 8.7 | 21.7 | 0.00 | 0.00 | 0.00 | 36 | 1008.2 |
| 20260504180632 | 71 | 196 | 6.1 | 23.5 | 0.00 | 0.00 | 0.00 | 36 | 1008.4 |
| 20260504180134 | 71 | 192 | 14.8 | 23.5 | 0.00 | 0.00 | 0.00 | 40 | 1008.4 |
| 20260504175700 | 70 | 221 | 9.6 | 24.3 | 0.00 | 0.00 | 0.00 | 35 | 1008.5 |
| 20260504175130 | 71 | 174 | 12.2 | 24.3 | 0.00 | 0.00 | 0.00 | 35 | 1008.6 |
| 20260504174639 | 71 | 229 | 10.4 | 23.5 | 0.00 | 0.00 | 0.00 | 33 | 1008.4 |
| 20260504174144 | 71 | 246 | 10.4 | 21.7 | 0.00 | 0.00 | 0.00 | 37 | 1008.5 |
| 20260504173631 | 71 | 284 | 8.7 | 21.7 | 0.00 | 0.00 | 0.00 | 37 | 1008.4 |
| 20260504173121 | 70 | 175 | 7.0 | 16.5 | 0.00 | 0.00 | 0.00 | 36 | 1008.5 |
| 20260504172648 | 70 | 244 | 7.0 | 22.6 | 0.00 | 0.00 | 0.00 | 40 | 1008.5 |
| 20260504172135 | 70 | 285 | 9.6 | 23.5 | 0.00 | 0.00 | 0.00 | 36 | 1008.4 |
| 20260504171624 | 70 | 243 | 9.6 | 25.2 | 0.00 | 0.00 | 0.00 | 37 | 1008.4 |
| 20260504171134 | 70 | 202 | 11.3 | 25.2 | 0.00 | 0.00 | 0.00 | 34 | 1008.4 |
| 20260504170635 | 69 | 289 | 9.6 | 25.2 | 0.00 | 0.00 | 0.00 | 41 | 1008.4 |
| 20260504170124 | 69 | 279 | 12.2 | 25.2 | 0.00 | 0.00 | 0.00 | 35 | 1008.6 |
| 20260504160124 | 68 | 240 | 10.4 | 23.5 | 0.00 | 0.00 | 0.00 | 37 | 1009.5 |
| 20260504151139 | 67 | 229 | 7.8 | 19.1 | 0.00 | 0.00 | 0.00 | 42 | 1009.9 |
| 20260504150706 | 66 | 261 | 7.8 | 20.9 | 0.00 | 0.00 | 0.00 | 42 | 1009.9 |
| 20260504150132 | 66 | 275 | 12.2 | 22.6 | 0.00 | 0.01 | 0.00 | 42 | 1009.9 |
| 20260504141145 | 65 | 219 | 8.7 | 19.1 | 0.00 | 0.01 | 0.00 | 43 | 1010.5 |
| 20260504140651 | 65 | 215 | 7.8 | 17.4 | 0.00 | 0.01 | 0.00 | 44 | 1010.6 |
| 20260504140121 | 64 | 236 | 7.8 | 14.8 | 0.00 | 0.01 | 0.00 | 42 | 1010.7 |
| 20260504130621 | 61 | 286 | 2.6 | 16.5 | 0.00 | 0.01 | 0.00 | 50 | 1011.1 |
| 20260504130136 | 61 | 187 | 7.0 | 16.5 | 0.00 | 0.01 | 0.00 | 49 | 1011.1 |
| 20260504120137 | 54 | 303 | 3.5 | 11.3 | 0.00 | 0.01 | 0.00 | 57 | 1011.4 |
| 20260504110633 | 47 | 252 | 4.3 | 7.0 | 0.00 | 0.01 | 0.00 | 66 | 1011.3 |
| 20260504110125 | 46 | 234 | 4.3 | 7.8 | 0.00 | 0.01 | 0.00 | 66 | 1011.3 |
| 20260504100138 | 41 | 227 | 4.3 | 9.6 | 0.00 | 0.01 | 0.00 | 77 | 1011.2 |
| 20260504090139 | 41 | 240 | 1.7 | 3.5 | 0.00 | 0.01 | 0.00 | 81 | 1011.0 |
| 20260504081653 | 42 | 248 | 0.9 | 2.6 | 0.00 | 0.01 | 0.00 | 76 | 1010.7 |
| 20260504081141 | 43 | 248 | 0.9 | 2.6 | 0.00 | 0.01 | 0.00 | 77 | 1010.8 |
| 20260504080631 | 43 | 248 | 1.7 | 3.5 | 0.00 | 0.01 | 0.00 | 76 | 1010.9 |
| 20260504080120 | 43 | 248 | 1.7 | 3.5 | 0.00 | 0.01 | 0.00 | 75 | 1010.9 |
| 20260504070142 | 43 | 248 | 0.0 | 2.6 | 0.00 | 0.01 | 0.00 | 71 | 1010.7 |
| 20260504060147 | 43 | 268 | 0.9 | 4.3 | 0.00 | 0.01 | 0.00 | 66 | 1010.8 |
| 20260504050635 | 40 | 255 | 1.7 | 7.0 | 0.00 | 0.01 | 0.00 | 71 | 1010.8 |
| 20260504050140 | 40 | 238 | 1.7 | 7.0 | 0.00 | 0.01 | 0.00 | 70 | 1010.8 |
| 20260504045627 | 40 | 267 | 1.7 | 3.5 | 0.00 | 0.01 | 0.00 | 69 | 1010.9 |
| 20260504045212 | 40 | 246 | 0.9 | 3.5 | 0.00 | 0.01 | 0.00 | 69 | 1010.8 |